This is the latest recevied weather packets stored in our database for station/object SP6FIG-13. If no packets are shown the sender has not sent any weather packets the latest 10 day(s).
| Time | Temp. | Humidity | Pressure | Rain* | Wind** | Luminosity | Snow |
|---|---|---|---|---|---|---|---|
| 1777627761 | 21.67° C | 39% | 1029.4 hPa | - | - | - | - |
| 1777627461 | 21.67° C | 39% | 1029.5 hPa | - | - | - | - |
| 1777627161 | 21.67° C | 39% | 1029.5 hPa | - | - | - | - |
| 1777626861 | 21.67° C | 38% | 1029.4 hPa | - | - | - | - |
| 1777626561 | 21.67° C | 38% | 1029.5 hPa | - | - | - | - |
| 1777626261 | 21.67° C | 38% | 1029.6 hPa | - | - | - | - |
| 1777625961 | 21.67° C | 39% | 1029.6 hPa | - | - | - | - |
| 1777625661 | 21.67° C | 37% | 1029.5 hPa | - | - | - | - |
| 1777625361 | 21.67° C | 38% | 1029.6 hPa | - | - | - | - |
| 1777625061 | 21.67° C | 38% | 1029.8 hPa | - | - | - | - |
| 1777624761 | 21.67° C | 37% | 1029.3 hPa | - | - | - | - |
| 1777624461 | 21.67° C | 40% | 1029.8 hPa | - | - | - | - |
| 1777624161 | 21.67° C | 39% | 1029.2 hPa | - | - | - | - |
| 1777623861 | 21.67° C | 39% | 1029.2 hPa | - | - | - | - |
| 1777623561 | 21.67° C | 38% | 1028.7 hPa | - | - | - | - |
| 1777623261 | 21.11° C | 37% | 1029.7 hPa | - | - | - | - |
| 1777622961 | 21.11° C | 37% | 1029.7 hPa | - | - | - | - |
| 1777622660 | 21.11° C | 36% | 1029.9 hPa | - | - | - | - |
| 1777622360 | 21.11° C | 38% | 1029.7 hPa | - | - | - | - |
| 1777622061 | 21.11° C | 37% | 1029.6 hPa | - | - | - | - |
| 1777621760 | 21.11° C | 37% | 1029.6 hPa | - | - | - | - |
| 1777621461 | 20.56° C | 36% | 1030 hPa | - | - | - | - |
| 1777621160 | 21.11° C | 37% | 1030.1 hPa | - | - | - | - |
| 1777620860 | 21.11° C | 37% | 1030.1 hPa | - | - | - | - |
| 1777620560 | 21.11° C | 41% | 1029.6 hPa | - | - | - | - |
* Rain since midnight (hover to see other rain measurements)
** Current wind speed in m/s (hover to see current wind gust speed)